Location: Unspecified
(49.8670°N, 0.0000°E)
Time: 02:20:30
(UTC+00:00)

Vanguard 1 - Pass Details

Date: 25 June 2019
Orbit: 653 x 3830 km, 34.3° (Epoch: 15 July)

Event Time Altitude Azimuth Distance (km) Brightness Sun altitude
Rises 02:02:16 0° 231° (SW) 7,837 - -12.1°
Reaches altitude 10° 02:08:36 10° 224° (SW) 6,558 - -11.6°
Exits shadow 02:09:06 11° 223° (SW) 6,457 13.6 -11.5°
Maximum altitude 02:25:16 36° 168° (SSE) 3,628 12.6 -10.2°
Drops below altitude 10° 02:35:47 10° 108° (ESE) 4,182 13.5 -9.2°
Sets 02:38:46 0° 99° (E) 4,810 14.0 -9.0°
